This is the latest recevied weather packets stored in our database for station/object KI4MRC. If no packets are shown the sender has not sent any weather packets the latest 10 day(s).
| Time | Temp. | Humidity | Pressure | Rain* | Wind** | Luminosity | Snow |
|---|---|---|---|---|---|---|---|
| 1777390210 | 30° C | 53% | 1018.8 hPa | 0 mm | - | 897 W/m² | - |
| 1777389906 | 30° C | 54% | 1018.8 hPa | 0 mm | - | 886 W/m² | - |
| 1777389604 | 29.44° C | 56% | 1018.8 hPa | 0 mm | - | 870 W/m² | - |
| 1777389299 | 29.44° C | 53% | 1018.8 hPa | 0 mm | - | 864 W/m² | - |
| 1777388998 | 29.44° C | 55% | 1018.7 hPa | 0 mm | - | 874 W/m² | - |
| 1777388694 | 29.44° C | 57% | 1018.7 hPa | 0 mm | - | 852 W/m² | - |
| 1777388391 | 29.44° C | 56% | 1018.9 hPa | 0 mm | - | 264 W/m² | - |
| 1777388091 | 30° C | 54% | 1018.7 hPa | 0 mm | - | 813 W/m² | - |
| 1777387787 | 30° C | 56% | 1018.8 hPa | 0 mm | - | 788 W/m² | - |
| 1777387484 | 29.44° C | 61% | 1018.9 hPa | 0 mm | - | 770 W/m² | - |
| 1777387179 | 30° C | 57% | 1018.9 hPa | 0 mm | - | 752 W/m² | - |
| 1777386874 | 30° C | 57% | 1018.9 hPa | 0 mm | - | 735 W/m² | - |
| 1777386572 | 30° C | 59% | 1018.7 hPa | 0 mm | - | 719 W/m² | - |
| 1777386269 | 29.44° C | 57% | 1018.6 hPa | 0 mm | - | 698 W/m² | - |
| 1777385966 | 29.44° C | 59% | 1018.8 hPa | 0 mm | - | 675 W/m² | - |
| 1777385662 | 28.89° C | 61% | 1018.6 hPa | 0 mm | - | 657 W/m² | - |
| 1777385360 | 28.89° C | 61% | 1018.5 hPa | 0 mm | - | 635 W/m² | - |
| 1777385056 | 28.89° C | 62% | 1018.6 hPa | 0 mm | - | 625 W/m² | - |
| 1777384753 | 28.33° C | 63% | 1018.5 hPa | 0 mm | - | 605 W/m² | - |
| 1777384448 | 28.33° C | 62% | 1018.3 hPa | 0 mm | - | 580 W/m² | - |
| 1777384144 | 28.33° C | 61% | 1018.3 hPa | 0 mm | - | 557 W/m² | - |
| 1777383841 | 28.33° C | 65% | 1018.4 hPa | 0 mm | - | 536 W/m² | - |
| 1777383536 | 28.33° C | 65% | 1018.1 hPa | 0 mm | - | 512 W/m² | - |
| 1777383233 | 28.33° C | 63% | 1018.5 hPa | 0 mm | - | 493 W/m² | - |
| 1777382930 | 28.33° C | 64% | 1018.2 hPa | 0 mm | - | 474 W/m² | - |
* Rain latest hour (hover to see other rain measurements)
** Current wind speed in m/s (hover to see current wind gust speed)